Regional Weather Roundup
Issued by NWS

Home | Current Version | Previous Version | Text Only | Print | Product List | Glossary On
Versions: 1 2 3 4 5 6 7 8 9 10 11 12 13 14 15 16 17 18 19 20 21 22 23 24 25 26 27 28 29 30 31 32 33 34 35 36 37 38 39 40 41 42 43 44 45 46 47 48 49 50
000
ASUS43 KLSX 290010
RWRMO

WEATHER SUMMARY FOR MISSOURI
NATIONAL WEATHER SERVICE SPRINGFIELD MO
700 PM CDT TUE MAR 28 2017

NOTE: "FAIR" INDICATES FEW OR NO CLOUDS BELOW 12,000 FEET WITH NO
       SIGNIFICANT WEATHER AND/OR OBSTRUCTIONS TO VISIBILITY.
       CURRENT SKY AND/OR WEATHER CONDITIONS ARE NOT AVAILABLE FOR
       CHILLICOTHE AND FARMINGTON.

MOZ001>031-035>038-043-044-053-054-290100-
...NORTHERN AND WESTERN MISSOURI...

CITY           SKY/WX    TMP DP  RH WIND       PRES   REMARKS
KANSAS CTY INT CLOUDY    53  49  86 E12       30.03R
6HR MIN TEMP:  52; 6HR MAX TEMP:  54; 6HR PCP: TRACE;

KANSAS C DTWN  CLOUDY    55  50  83 E12       30.02R
6HR MIN TEMP:  53; 6HR MAX TEMP:  55;

LEE`S SUMMIT   CLOUDY    53  51  93 NE10      30.01S
6HR MIN TEMP:  51; 6HR MAX TEMP:  54;

ST JOSEPH      CLOUDY    53  49  86 NE7       30.06R
6HR MIN TEMP:  52; 6HR MAX TEMP:  55;

CHILLICOTHE      N/A     54  49  83 E7        30.07R
6HR MIN TEMP:  51; 6HR MAX TEMP:  55;

KIRKSVILLE     CLOUDY    52  47  83 E9        30.09R
6HR MIN TEMP:  52; 6HR MAX TEMP:  55;


$$
MOZ066>068-077>081-088>096-101>105-290100-
...SOUTHWEST MISSOURI...

CITY           SKY/WX    TMP DP  RH WIND       PRES   REMARKS
SPRINGFIELD    CLEAR     66  51  58 E13       29.93R
6HR MIN TEMP:  58; 6HR MAX TEMP:  68;

JOPLIN         CLEAR     64  53  67 NE13G20   29.89F
6HR MIN TEMP:  56; 6HR MAX TEMP:  68;

BRANSON        CLEAR     66  52  59 E12       29.94R

$$
MOZ032>034-039>042-045>050-055>058-069>072-290100-
...CENTRAL MISSOURI...

CITY           SKY/WX    TMP DP  RH WIND       PRES   REMARKS
COLUMBIA       CLOUDY    57  50  77 E12       30.03S
6HR MIN TEMP:  54; 6HR MAX TEMP:  59;

JEFFERSON CITY CLOUDY    59  49  69 E8        30.03S
6HR MIN TEMP:  57; 6HR MAX TEMP:  61;

ROLLA          CLOUDY    54  50  86 NE15      30.01S
6HR MIN TEMP:  54; 6HR MAX TEMP:  58;

SEDALIA        CLOUDY    57  51  80 E10       30.03R
6HR MIN TEMP:  54; 6HR MAX TEMP:  57;

WHITEMAN AFB   CLOUDY    56  55  99 E12       30.01S
WARRENSBURG    CLOUDY    54  50  87 NE10G16   30.02R
OSAGE BEACH    CLOUDY    58  50  75 NE10      30.02R

$$
MOZ051-052-059>065-290100-
...EAST CENTRAL MISSOURI...

CITY           SKY/WX    TMP DP  RH WIND       PRES   REMARKS
ST LOUIS INTL  CLOUDY    58  47  66 NE8       30.08R
6HR MIN TEMP:  57; 6HR MAX TEMP:  59;

SPIRIT OF STL  CLOUDY    57  50  77 NE7       30.06S
6HR MIN TEMP:  56; 6HR MAX TEMP:  58;

ST CHARLES     CLOUDY    56  49  77 NE7       30.07S
6HR MIN TEMP:  56; 6HR MAX TEMP:  59;


$$
MOZ072>076-082>087-097>100-106>115-290100-
...SOUTH CENTRAL AND SOUTHEAST MISSOURI...

CITY           SKY/WX    TMP DP  RH WIND       PRES   REMARKS
CAPE GIRARDEAU CLOUDY    59  50  72 NE10      30.04R
6HR MIN TEMP:  57; 6HR MAX TEMP:  60;

FARMINGTON     CLOUDY    55  49  80 NE8       30.06R
6HR MIN TEMP:  54; 6HR MAX TEMP:  57;

POPLAR BLUFF   MOCLDY    60  52  74 NE10      30.02R
6HR MIN TEMP:  60; 6HR MAX TEMP:  64;

WEST PLAINS    CLEAR     64  50  60 E8        29.97S
6HR MIN TEMP:  60; 6HR MAX TEMP:  67;


$$



USA.gov is the U.S. government's official web portal to all federal, state and local government web resources and services.